SKYSAT-A

Last updated on Sun Jun 21 2026 00:02:51 GMT+0000 (Coordinated Universal Time)

1 39418U 13066C 26170.70438518 .00002071 00000+0 12046-3 0 9998 2 39418 97.3811 220.0216 0019939 308.1910 51.7525 15.12985941688868
UTC large
Height (km)
Speed (km/s)
/
Latitude / Longitude
Inclination (degrees)
Orbital Period (minutes)
Azimuth
Elevation
Range (km)
Doppler Factor

Next 0 passes for location: London (51.5072 / 0.1276)

No passes found over London.
SKYSAT-A